OSCAR 30 DEB, 21878

Orbit data source: Space-Track

OSCAR 30 DEB, 21878 is space debris in LEO originally from a launch on Sat, 03 Aug 1985 UTC launched from the Air Force Western Test Range (AFWTR). Debris objects in space refer to the collection of defunct objects orbiting the Earth. Examples of debris include non-operational satellites, rocket bodies, and fragments generated from explosions, collisions, or faulty payload assembly.

Loading next visibility...
Identifier
21878, 1985-066H
Orbit
LEO
Country
Flag of USUS
Related business
Manufacturer
Unknown
Mission
Spacecraft
Bus & Motor
Unknown
Mass
Unknown
Launch date (UTC)
1985-08-03 (41 years ago)
Launch vehicle
Unknown
Launch site
Air Force Western Test Range (AFWTR)
Object type
Payload
Rocket body
Debris
Shape & HBR
Unknown shape, 0.2 m
Radar Cross Section
Medium (>0.1 m² and <1 m²)

Expand to show TLE details & history
Last TLE update: 2 days ago

TLE from 2 days ago
0 OSCAR 30 DEB
1 21878U 85066H   26171.20008934  .00001196  00000-0  16945-2 0  9998
2 21878  90.1733  70.1063 0144696 163.6720 349.2334 13.51933879999164
Epoch: 2026-06-20T04:48Z
TLE epoch observation values (Epoch: 2026-06-20T04:48:07.718Z)
Latitude
27.44795°
Longitude
-90.25444°
Altitude
962.8 km
Speed
7.425 km/s
True Right ascension
16h 40m 47s
True Declination
27° 18' 41"
Sunlit
Object was in full shadow at epoch
Visualization orbit readout
Latitude
Unknown
Longitude
Unknown
Altitude
Unknown
Speed
Unknown
Apparent Right ascension
Unknown
Apparent Declination
Unknown
Sunlit
N/A
Visualization observer readout
Local Sidereal Time
00:34:41
Azimuth
Unknown
Elevation
Unknown
Doppler factor
Unknown
Orbital elements
Apogee altitude
1,169.857 km
Perigee altitude
954.539 km
Semi-major axis
7,440.335 km
Eccentricity
0.01447
Inclination
90.1733°
RAAN
70.1063°
Arg. of periapsis
163.672°
True anomaly
348.91806°
Mean anomaly
349.2334°
Eccentric anomaly
349.07629°
Mean motion
3.38185 °/min
Orbital period
106.45 mins
BSTAR
0.0016945
Loading maneuver chart data...
Computing Atmospheric mass density...
Loading historical data...
Loading historical data...
Loading historical data...
Loading historical data...
Loading historical data...
Loading historical data...
Loading historical data...

Documentation

Showing up to 5 results
|